Time,TemperatureF,DewpointF,PressureIn,WindDirection,WindDirectionDegrees,WindSpeedMPH,WindSpeedGustMPH,Humidity,HourlyPrecipIn,Conditions,Clouds,dailyrainin,SoftwareType,DateUTC
2013-01-02 00:03:00,41.7,39.6,29.92,NE,45,3.8,6.0,92,0.00,,,0.00,pywws,2013-01-02 00:03:00,
2013-01-02 00:08:00,41.7,39.6,29.92,NE,45,3.8,5.4,92,0.00,,,0.00,pywws,2013-01-02 00:08:00,
2013-01-02 00:13:00,41.7,39.6,29.92,NNE,22,3.8,6.0,92,0.00,,,0.00,pywws,2013-01-02 00:13:00,
2013-01-02 00:18:00,41.9,39.7,29.92,NE,45,3.8,6.9,92,0.00,,,0.00,pywws,2013-01-02 00:18:00,
2013-01-02 00:23:00,41.9,39.5,29.93,South,180,1.6,3.8,91,0.00,,,0.00,pywws,2013-01-02 00:23:00,
2013-01-02 00:28:00,41.9,39.5,29.92,NE,45,1.6,3.8,91,0.00,,,0.00,pywws,2013-01-02 00:28:00,
2013-01-02 00:33:00,41.7,39.6,29.93,NW,315,2.2,3.8,92,0.00,,,0.00,pywws,2013-01-02 00:33:00,
2013-01-02 00:38:00,41.7,39.6,29.93,NE,45,3.1,4.5,92,0.00,,,0.00,pywws,2013-01-02 00:38:00,
2013-01-02 00:43:00,41.7,39.6,29.93,NW,315,3.1,5.4,92,0.00,,,0.00,pywws,2013-01-02 00:43:00,
2013-01-02 00:48:00,41.7,39.6,29.93,NE,45,2.2,4.5,92,0.00,,,0.00,pywws,2013-01-02 00:48:00,
2013-01-02 00:53:00,41.9,39.7,29.93,NNW,338,1.6,4.5,92,0.00,,,0.00,pywws,2013-01-02 00:53:00,
2013-01-02 01:03:00,41.9,39.7,29.92,NW,315,2.2,3.8,92,0.00,,,0.00,pywws,2013-01-02 01:03:00,
2013-01-02 01:08:00,41.9,39.7,29.93,NE,45,1.6,3.8,92,0.00,,,0.00,pywws,2013-01-02 01:08:00,
2013-01-02 01:13:00,41.9,39.7,29.93,NE,45,2.2,3.8,92,0.00,,,0.00,pywws,2013-01-02 01:13:00,
2013-01-02 01:18:00,42.1,39.9,29.93,North,-999,0.0,2.2,92,0.00,,,0.00,pywws,2013-01-02 01:18:00,
2013-01-02 01:23:00,41.9,39.7,29.94,NE,45,0.7,2.2,92,0.00,,,0.00,pywws,2013-01-02 01:23:00,
2013-01-02 01:28:00,41.9,39.7,29.94,NE,45,1.6,3.8,92,0.00,,,0.00,pywws,2013-01-02 01:28:00,
2013-01-02 01:33:00,41.9,40.0,29.94,North,0,1.6,3.8,93,0.00,,,0.00,pywws,2013-01-02 01:33:00,
2013-01-02 01:38:00,42.1,40.2,29.94,NW,315,0.7,1.6,93,0.00,,,0.00,pywws,2013-01-02 01:38:00,
2013-01-02 01:43:00,42.1,40.2,29.95,NE,45,1.6,3.8,93,0.00,,,0.00,pywws,2013-01-02 01:43:00,
2013-01-02 01:48:00,42.1,40.2,29.94,West,270,3.8,6.0,93,0.00,,,0.00,pywws,2013-01-02 01:48:00,
2013-01-02 01:53:00,42.1,40.2,29.95,NW,315,0.7,1.6,93,0.00,,,0.00,pywws,2013-01-02 01:53:00,
2013-01-02 02:03:00,41.9,40.0,29.96,NW,315,0.7,3.1,93,0.00,,,0.00,pywws,2013-01-02 02:03:00,
2013-01-02 02:08:00,41.9,40.0,29.95,NE,45,0.7,4.5,93,0.00,,,0.00,pywws,2013-01-02 02:08:00,
2013-01-02 02:13:00,42.1,40.5,29.96,NW,315,1.6,3.8,94,0.00,,,0.00,pywws,2013-01-02 02:13:00,
2013-01-02 02:18:00,42.3,40.7,29.96,NE,45,1.6,3.1,94,0.00,,,0.00,pywws,2013-01-02 02:18:00,
2013-01-02 02:23:00,42.3,40.7,29.96,West,270,0.7,2.2,94,0.00,,,0.00,pywws,2013-01-02 02:23:00,
2013-01-02 02:28:00,42.3,40.7,29.97,NE,45,1.6,3.8,94,0.00,,,0.00,pywws,2013-01-02 02:28:00,
2013-01-02 02:33:00,42.4,40.8,29.97,North,0,1.6,3.1,94,0.00,,,0.00,pywws,2013-01-02 02:33:00,
2013-01-02 02:38:00,42.4,40.6,29.97,NE,45,0.7,2.2,93,0.00,,,0.00,pywws,2013-01-02 02:38:00,
2013-01-02 02:43:00,42.4,40.6,29.97,NW,315,1.6,3.8,93,0.00,,,0.00,pywws,2013-01-02 02:43:00,
2013-01-02 02:48:00,42.6,40.7,29.97,NE,45,1.6,3.8,93,0.00,,,0.00,pywws,2013-01-02 02:48:00,
2013-01-02 02:53:00,42.8,40.9,29.97,NE,45,2.2,3.1,93,0.00,,,0.00,pywws,2013-01-02 02:53:00,
2013-01-02 03:03:00,42.8,40.9,29.97,NW,315,0.7,3.1,93,0.00,,,0.00,pywws,2013-01-02 03:03:00,
2013-01-02 03:08:00,42.8,40.9,29.97,West,270,0.7,3.1,93,0.00,,,0.00,pywws,2013-01-02 03:08:00,
2013-01-02 03:13:00,43.0,41.1,29.97,NE,45,1.6,4.5,93,0.00,,,0.00,pywws,2013-01-02 03:13:00,
2013-01-02 03:18:00,43.2,41.0,29.97,NE,45,1.6,3.8,92,0.00,,,0.00,pywws,2013-01-02 03:18:00,
2013-01-02 03:23:00,43.3,41.2,29.96,NE,45,4.5,6.0,92,0.00,,,0.00,pywws,2013-01-02 03:23:00,
2013-01-02 03:28:00,43.5,41.1,29.96,NNE,22,3.1,5.4,91,0.00,,,0.00,pywws,2013-01-02 03:28:00,
2013-01-02 03:33:00,43.7,41.0,29.97,NE,45,4.5,7.6,90,0.00,,,0.00,pywws,2013-01-02 03:33:00,
2013-01-02 03:38:00,43.7,41.0,29.97,SE,135,3.8,6.9,90,0.00,,,0.00,pywws,2013-01-02 03:38:00,
2013-01-02 03:43:00,43.7,41.0,29.97,NE,45,3.8,6.0,90,0.00,,,0.00,pywws,2013-01-02 03:43:00,
2013-01-02 03:48:00,43.7,41.0,29.97,NE,45,2.2,5.4,90,0.00,,,0.00,pywws,2013-01-02 03:48:00,
2013-01-02 03:53:00,43.7,41.0,29.97,NE,45,3.8,6.0,90,0.00,,,0.00,pywws,2013-01-02 03:53:00,
2013-01-02 04:03:00,43.7,41.0,29.97,North,0,3.1,4.5,90,0.00,,,0.00,pywws,2013-01-02 04:03:00,
2013-01-02 04:08:00,43.7,41.0,29.97,NNE,22,0.7,3.1,90,0.00,,,0.00,pywws,2013-01-02 04:08:00,
2013-01-02 04:13:00,43.7,41.0,29.98,NE,45,3.1,4.5,90,0.00,,,0.00,pywws,2013-01-02 04:13:00,
2013-01-02 04:18:00,43.9,41.1,29.98,NNE,22,1.6,4.5,90,0.00,,,0.00,pywws,2013-01-02 04:18:00,
2013-01-02 04:23:00,43.7,41.0,29.98,West,270,0.7,3.1,90,0.00,,,0.00,pywws,2013-01-02 04:23:00,
2013-01-02 04:28:00,43.7,41.0,29.98,East,90,1.6,3.8,90,0.00,,,0.00,pywws,2013-01-02 04:28:00,
2013-01-02 04:33:00,43.7,41.0,29.98,NE,45,0.7,2.2,90,0.00,,,0.00,pywws,2013-01-02 04:33:00,
2013-01-02 04:38:00,43.9,41.1,29.98,NE,45,1.6,3.8,90,0.00,,,0.00,pywws,2013-01-02 04:38:00,
2013-01-02 04:43:00,43.9,41.1,29.98,NE,45,1.6,3.8,90,0.00,,,0.00,pywws,2013-01-02 04:43:00,
2013-01-02 04:48:00,43.9,41.1,29.98,NE,45,1.6,3.8,90,0.00,,,0.00,pywws,2013-01-02 04:48:00,
2013-01-02 04:53:00,43.9,41.1,29.99,NW,315,1.6,3.8,90,0.00,,,0.00,pywws,2013-01-02 04:53:00,
2013-01-02 05:03:00,43.9,41.4,29.99,NE,45,1.6,3.8,91,0.00,,,0.00,pywws,2013-01-02 05:03:00,
2013-01-02 05:08:00,43.5,41.4,29.99,North,-999,0.0,1.6,92,0.00,,,0.00,pywws,2013-01-02 05:08:00,
2013-01-02 05:13:00,43.3,41.2,29.99,NE,45,0.7,3.1,92,0.00,,,0.00,pywws,2013-01-02 05:13:00,
2013-01-02 05:18:00,43.0,41.1,29.99,NE,45,0.7,3.1,93,0.00,,,0.00,pywws,2013-01-02 05:18:00,
2013-01-02 05:23:00,42.8,40.9,29.99,North,-999,0.0,0.7,93,0.00,,,0.00,pywws,2013-01-02 05:23:00,
2013-01-02 05:28:00,42.6,41.0,29.99,North,-999,0.0,0.7,94,0.00,,,0.00,pywws,2013-01-02 05:28:00,
2013-01-02 05:33:00,42.3,40.9,29.99,NW,315,1.6,3.1,95,0.00,,,0.00,pywws,2013-01-02 05:33:00,
2013-01-02 05:38:00,42.3,41.2,29.98,North,0,1.6,3.8,96,0.00,,,0.00,pywws,2013-01-02 05:38:00,
2013-01-02 05:43:00,42.1,41.0,29.98,NNW,338,1.6,4.5,96,0.00,,,0.00,pywws,2013-01-02 05:43:00,
2013-01-02 05:48:00,41.9,40.8,29.98,NE,45,2.2,5.4,96,0.00,,,0.00,pywws,2013-01-02 05:48:00,
2013-01-02 05:53:00,41.9,40.8,29.97,NW,315,0.7,3.1,96,0.00,,,0.00,pywws,2013-01-02 05:53:00,
2013-01-02 06:03:00,41.7,40.9,29.97,NW,315,2.2,5.4,97,0.00,,,0.00,pywws,2013-01-02 06:03:00,
2013-01-02 06:08:00,41.5,41.0,29.97,NW,315,0.7,2.2,98,0.00,,,0.00,pywws,2013-01-02 06:08:00,
2013-01-02 06:13:00,41.5,41.3,29.97,West,270,0.7,3.1,99,0.00,,,0.00,pywws,2013-01-02 06:13:00,
2013-01-02 06:18:00,41.5,41.3,29.97,NW,315,0.7,1.6,99,0.00,,,0.00,pywws,2013-01-02 06:18:00,
2013-01-02 06:23:00,41.4,41.1,29.98,North,-999,0.0,1.6,99,0.00,,,0.00,pywws,2013-01-02 06:23:00,
2013-01-02 06:28:00,41.2,40.9,29.98,North,-999,0.0,0.0,99,0.00,,,0.00,pywws,2013-01-02 06:28:00,
2013-01-02 06:33:00,41.2,40.9,29.98,North,-999,0.0,1.6,99,0.00,,,0.00,pywws,2013-01-02 06:33:00,
2013-01-02 06:38:00,41.2,40.9,29.98,West,270,0.7,2.2,99,0.00,,,0.00,pywws,2013-01-02 06:38:00,
2013-01-02 06:43:00,41.2,40.9,29.98,NW,315,1.6,3.8,99,0.00,,,0.00,pywws,2013-01-02 06:43:00,
2013-01-02 06:48:00,41.2,40.9,29.98,North,-999,0.0,2.2,99,0.00,,,0.00,pywws,2013-01-02 06:48:00,
2013-01-02 06:53:00,41.2,40.9,29.98,NW,315,0.7,3.8,99,0.00,,,0.00,pywws,2013-01-02 06:53:00,
2013-01-02 07:03:00,41.2,40.9,29.97,NW,315,0.7,1.6,99,0.00,,,0.00,pywws,2013-01-02 07:03:00,
2013-01-02 07:08:00,41.2,40.9,29.97,NW,315,1.6,5.4,99,0.00,,,0.00,pywws,2013-01-02 07:08:00,
2013-01-02 07:13:00,41.2,40.9,29.97,North,-999,0.0,1.6,99,0.00,,,0.00,pywws,2013-01-02 07:13:00,
2013-01-02 07:18:00,41.2,40.9,29.97,NW,315,0.7,2.2,99,0.00,,,0.00,pywws,2013-01-02 07:18:00,
2013-01-02 07:23:00,41.2,40.9,29.97,NW,315,0.7,2.2,99,0.00,,,0.00,pywws,2013-01-02 07:23:00,
2013-01-02 07:28:00,41.2,40.9,29.97,West,270,0.7,1.6,99,0.00,,,0.00,pywws,2013-01-02 07:28:00,
2013-01-02 07:33:00,41.2,40.9,29.96,North,0,0.7,2.2,99,0.00,,,0.00,pywws,2013-01-02 07:33:00,
2013-01-02 07:38:00,41.2,40.9,29.96,West,270,0.7,1.6,99,0.00,,,0.00,pywws,2013-01-02 07:38:00,
2013-01-02 07:43:00,41.2,40.9,29.96,North,-999,0.0,2.2,99,0.00,,,0.00,pywws,2013-01-02 07:43:00,
2013-01-02 07:48:00,41.2,40.9,29.96,North,-999,0.0,0.7,99,0.00,,,0.00,pywws,2013-01-02 07:48:00,
2013-01-02 07:53:00,41.2,40.9,29.98,North,-999,0.0,1.6,99,0.00,,,0.00,pywws,2013-01-02 07:53:00,
2013-01-02 08:03:00,41.0,40.7,29.98,North,-999,0.0,0.0,99,0.00,,,0.00,pywws,2013-01-02 08:03:00,
2013-01-02 08:08:00,41.2,40.9,29.98,North,-999,0.0,0.7,99,0.00,,,0.00,pywws,2013-01-02 08:08:00,
2013-01-02 08:13:00,41.4,41.1,29.98,North,-999,0.0,0.7,99,0.00,,,0.00,pywws,2013-01-02 08:13:00,
2013-01-02 08:18:00,41.4,41.1,29.98,North,-999,0.0,0.0,99,0.00,,,0.00,pywws,2013-01-02 08:18:00,
2013-01-02 08:23:00,41.4,41.1,29.98,North,-999,0.0,0.0,99,0.00,,,0.00,pywws,2013-01-02 08:23:00,
2013-01-02 08:28:00,41.4,41.1,29.98,North,-999,0.0,0.7,99,0.00,,,0.00,pywws,2013-01-02 08:28:00,
2013-01-02 08:33:00,41.4,41.1,29.98,North,-999,0.0,0.7,99,0.00,,,0.00,pywws,2013-01-02 08:33:00,
2013-01-02 08:38:00,41.4,41.1,29.98,North,-999,0.0,0.0,99,0.00,,,0.00,pywws,2013-01-02 08:38:00,
2013-01-02 08:43:00,41.2,40.9,29.97,North,-999,0.0,1.6,99,0.00,,,0.00,pywws,2013-01-02 08:43:00,
2013-01-02 08:48:00,41.2,40.9,29.97,North,-999,0.0,0.0,99,0.00,,,0.00,pywws,2013-01-02 08:48:00,
2013-01-02 08:53:00,41.2,40.9,29.96,North,-999,0.0,0.7,99,0.00,,,0.00,pywws,2013-01-02 08:53:00,
2013-01-02 09:03:00,41.2,40.9,29.95,North,-999,0.0,1.6,99,0.00,,,0.00,pywws,2013-01-02 09:03:00,
2013-01-02 09:08:00,41.2,40.9,29.95,North,-999,0.0,0.0,99,0.00,,,0.00,pywws,2013-01-02 09:08:00,
2013-01-02 09:13:00,41.2,40.9,29.96,North,-999,0.0,0.0,99,0.00,,,0.00,pywws,2013-01-02 09:13:00,
2013-01-02 09:18:00,41.2,40.9,29.95,North,-999,0.0,1.6,99,0.00,,,0.00,pywws,2013-01-02 09:18:00,
2013-01-02 09:23:00,41.2,40.9,29.95,North,-999,0.0,1.6,99,0.00,,,0.00,pywws,2013-01-02 09:23:00,
2013-01-02 09:28:00,41.5,41.3,29.95,North,-999,0.0,0.7,99,0.00,,,0.00,pywws,2013-01-02 09:28:00,
2013-01-02 09:33:00,41.7,41.5,29.95,SE,135,0.7,2.2,99,0.00,,,0.00,pywws,2013-01-02 09:33:00,
2013-01-02 09:38:00,41.9,41.6,29.95,North,-999,0.0,1.6,99,0.00,,,0.00,pywws,2013-01-02 09:38:00,
2013-01-02 09:43:00,42.1,41.8,29.95,North,-999,0.0,1.6,99,0.00,,,0.00,pywws,2013-01-02 09:43:00,
2013-01-02 09:48:00,42.3,42.0,29.95,North,-999,0.0,1.6,99,0.00,,,0.00,pywws,2013-01-02 09:48:00,
2013-01-02 09:53:00,42.3,42.0,29.95,North,-999,0.0,1.6,99,0.00,,,0.00,pywws,2013-01-02 09:53:00,
2013-01-02 10:03:00,42.4,42.2,29.95,North,-999,0.0,0.0,99,0.00,,,0.00,pywws,2013-01-02 10:03:00,
2013-01-02 10:08:00,42.4,42.2,29.95,North,-999,0.0,0.0,99,0.00,,,0.00,pywws,2013-01-02 10:08:00,
2013-01-02 10:13:00,42.4,42.2,29.95,North,-999,0.0,1.6,99,0.00,,,0.00,pywws,2013-01-02 10:13:00,
2013-01-02 10:18:00,42.4,42.2,29.94,North,-999,0.0,0.7,99,0.00,,,0.00,pywws,2013-01-02 10:18:00,
2013-01-02 10:23:00,42.4,42.2,29.94,North,-999,0.0,0.0,99,0.00,,,0.00,pywws,2013-01-02 10:23:00,
2013-01-02 10:28:00,42.6,42.4,29.94,North,-999,0.0,0.7,99,0.00,,,0.00,pywws,2013-01-02 10:28:00,
2013-01-02 10:33:00,42.6,42.4,29.94,North,-999,0.0,0.7,99,0.00,,,0.00,pywws,2013-01-02 10:33:00,
2013-01-02 10:38:00,42.6,42.4,29.94,North,-999,0.0,1.6,99,0.00,,,0.00,pywws,2013-01-02 10:38:00,
2013-01-02 10:43:00,42.6,42.4,29.94,North,-999,0.0,0.7,99,0.00,,,0.00,pywws,2013-01-02 10:43:00,
2013-01-02 10:48:00,42.8,42.5,29.94,North,-999,0.0,0.7,99,0.00,,,0.00,pywws,2013-01-02 10:48:00,
2013-01-02 10:53:00,43.2,42.9,29.94,North,-999,0.0,0.0,99,0.00,,,0.00,pywws,2013-01-02 10:53:00,
2013-01-02 11:03:00,43.3,43.1,29.93,North,-999,0.0,0.0,99,0.00,,,0.00,pywws,2013-01-02 11:03:00,
2013-01-02 11:08:00,44.8,44.5,29.93,North,-999,0.0,0.7,99,0.00,,,0.00,pywws,2013-01-02 11:08:00,
2013-01-02 11:13:00,45.3,45.1,29.93,North,-999,0.0,1.6,99,0.00,,,0.00,pywws,2013-01-02 11:13:00,
2013-01-02 11:18:00,46.0,45.8,29.93,NE,45,1.6,3.1,99,0.00,,,0.00,pywws,2013-01-02 11:18:00,
2013-01-02 11:23:00,46.8,46.5,29.93,North,-999,0.0,2.2,99,0.00,,,0.00,pywws,2013-01-02 11:23:00,
2013-01-02 11:28:00,47.3,47.0,29.93,NNW,338,0.7,2.2,99,0.00,,,0.00,pywws,2013-01-02 11:28:00,
2013-01-02 11:33:00,47.8,47.6,29.92,North,0,0.7,2.2,99,0.00,,,0.00,pywws,2013-01-02 11:33:00,
2013-01-02 11:38:00,48.2,47.9,29.93,East,90,0.7,2.2,99,0.00,,,0.00,pywws,2013-01-02 11:38:00,
2013-01-02 11:43:00,48.6,48.3,29.93,ENE,68,1.6,3.1,99,0.00,,,0.00,pywws,2013-01-02 11:43:00,
2013-01-02 11:48:00,48.9,48.7,29.93,North,0,0.7,3.8,99,0.00,,,0.00,pywws,2013-01-02 11:48:00,
2013-01-02 11:53:00,49.3,49.0,29.92,NW,315,0.7,2.2,99,0.00,,,0.00,pywws,2013-01-02 11:53:00,
2013-01-02 12:03:00,49.6,49.4,29.92,NE,45,1.6,3.1,99,0.00,,,0.00,pywws,2013-01-02 12:03:00,
2013-01-02 12:08:00,49.8,49.5,29.92,NW,315,2.2,6.9,99,0.00,,,0.00,pywws,2013-01-02 12:08:00,
2013-01-02 12:13:00,50.2,49.9,29.92,NW,315,1.6,3.8,99,0.00,,,0.00,pywws,2013-01-02 12:13:00,
2013-01-02 12:18:00,51.6,51.3,29.92,North,-999,0.0,0.7,99,0.00,,,0.00,pywws,2013-01-02 12:18:00,
2013-01-02 12:23:00,53.4,53.1,29.92,NE,45,3.8,7.6,99,0.00,,,0.00,pywws,2013-01-02 12:23:00,
2013-01-02 12:28:00,54.3,53.2,29.92,ESE,112,2.2,4.5,96,0.00,,,0.00,pywws,2013-01-02 12:28:00,
2013-01-02 12:33:00,54.7,53.0,29.92,North,0,3.8,7.6,94,0.00,,,0.00,pywws,2013-01-02 12:33:00,
2013-01-02 12:38:00,54.7,52.7,29.92,NE,45,3.8,7.6,93,0.00,,,0.00,pywws,2013-01-02 12:38:00,
2013-01-02 12:43:00,54.9,52.9,29.91,NE,45,3.8,8.3,93,0.00,,,0.00,pywws,2013-01-02 12:43:00,
2013-01-02 12:48:00,54.7,52.4,29.91,NE,45,1.6,3.1,92,0.00,,,0.00,pywws,2013-01-02 12:48:00,
2013-01-02 12:53:00,54.7,52.7,29.91,East,90,2.2,5.4,93,0.00,,,0.00,pywws,2013-01-02 12:53:00,
2013-01-02 13:03:00,54.3,52.0,29.91,NW,315,4.5,7.6,92,0.00,,,0.00,pywws,2013-01-02 13:03:00,
2013-01-02 13:08:00,52.9,51.2,29.91,NW,315,2.2,4.5,94,0.00,,,0.00,pywws,2013-01-02 13:08:00,
2013-01-02 13:13:00,52.5,51.4,29.92,NW,315,3.1,6.0,96,0.00,,,0.00,pywws,2013-01-02 13:13:00,
2013-01-02 13:18:00,52.9,51.8,29.92,ESE,112,5.4,9.2,96,0.00,,,0.00,pywws,2013-01-02 13:18:00,
2013-01-02 13:23:00,53.4,52.0,29.92,NE,45,3.1,7.6,95,0.00,,,0.00,pywws,2013-01-02 13:23:00,
2013-01-02 13:28:00,52.7,51.6,29.92,NW,315,3.1,6.0,96,0.00,,,0.00,pywws,2013-01-02 13:28:00,
2013-01-02 13:33:00,52.5,51.7,29.93,NE,45,3.1,6.9,97,0.00,,,0.00,pywws,2013-01-02 13:33:00,
2013-01-02 13:38:00,52.3,51.5,29.93,North,0,2.2,6.0,97,0.00,,,0.00,pywws,2013-01-02 13:38:00,
2013-01-02 13:43:00,52.3,51.8,29.93,East,90,2.2,3.8,98,0.00,,,0.00,pywws,2013-01-02 13:43:00,
2013-01-02 13:48:00,52.2,51.9,29.93,NE,45,2.2,6.0,99,0.00,,,0.00,pywws,2013-01-02 13:48:00,
2013-01-02 13:53:00,52.3,52.1,29.93,NE,45,1.6,3.1,99,0.00,,,0.00,pywws,2013-01-02 13:53:00,
2013-01-02 14:03:00,52.5,52.2,29.93,NNE,22,1.6,3.8,99,0.00,,,0.00,pywws,2013-01-02 14:03:00,
2013-01-02 14:08:00,52.7,52.2,29.93,NNE,22,3.1,7.6,98,0.00,,,0.00,pywws,2013-01-02 14:08:00,
2013-01-02 14:13:00,52.7,52.2,29.93,NE,45,1.6,4.5,98,0.00,,,0.00,pywws,2013-01-02 14:13:00,
2013-01-02 14:18:00,52.7,52.2,29.93,NE,45,4.5,7.6,98,0.00,,,0.00,pywws,2013-01-02 14:18:00,
2013-01-02 14:23:00,52.9,52.1,29.93,NE,45,3.1,6.9,97,0.00,,,0.00,pywws,2013-01-02 14:23:00,
2013-01-02 14:28:00,52.9,52.1,29.93,NW,315,3.1,6.0,97,0.00,,,0.00,pywws,2013-01-02 14:28:00,
2013-01-02 14:33:00,52.9,52.1,29.94,NE,45,4.5,13.6,97,0.00,,,0.00,pywws,2013-01-02 14:33:00,
2013-01-02 14:38:00,53.1,52.2,29.93,North,0,1.6,4.5,97,0.00,,,0.00,pywws,2013-01-02 14:38:00,
2013-01-02 14:43:00,53.1,52.2,29.94,North,0,2.2,6.0,97,0.00,,,0.00,pywws,2013-01-02 14:43:00,
2013-01-02 14:48:00,53.1,52.2,29.94,NE,45,2.2,4.5,97,0.00,,,0.00,pywws,2013-01-02 14:48:00,
2013-01-02 14:53:00,53.1,52.2,29.93,West,270,2.2,4.5,97,0.00,,,0.00,pywws,2013-01-02 14:53:00,
2013-01-02 15:03:00,53.1,52.2,29.94,ENE,68,2.2,4.5,97,0.00,,,0.00,pywws,2013-01-02 15:03:00,
2013-01-02 15:08:00,52.9,52.1,29.94,North,0,1.6,6.0,97,0.00,,,0.00,pywws,2013-01-02 15:08:00,
2013-01-02 15:13:00,52.7,52.2,29.94,North,0,3.1,5.4,98,0.00,,,0.00,pywws,2013-01-02 15:13:00,
2013-01-02 15:18:00,52.7,52.2,29.94,NW,315,2.2,5.4,98,0.00,,,0.00,pywws,2013-01-02 15:18:00,
2013-01-02 15:23:00,52.9,52.6,29.94,East,90,2.2,4.5,99,0.00,,,0.00,pywws,2013-01-02 15:23:00,
2013-01-02 15:28:00,52.7,52.4,29.95,NNW,338,2.2,4.5,99,0.00,,,0.00,pywws,2013-01-02 15:28:00,
2013-01-02 15:33:00,52.7,52.4,29.95,North,0,1.6,3.8,99,0.00,,,0.00,pywws,2013-01-02 15:33:00,
2013-01-02 15:38:00,52.5,52.2,29.95,West,270,2.2,5.4,99,0.00,,,0.00,pywws,2013-01-02 15:38:00,
2013-01-02 15:43:00,52.5,52.2,29.95,North,0,3.1,6.9,99,0.00,,,0.00,pywws,2013-01-02 15:43:00,
2013-01-02 15:48:00,52.3,52.1,29.95,NE,45,3.1,6.9,99,0.00,,,0.00,pywws,2013-01-02 15:48:00,
2013-01-02 15:53:00,52.2,51.9,29.96,North,0,3.1,5.4,99,0.00,,,0.00,pywws,2013-01-02 15:53:00,
2013-01-02 16:03:00,52.3,52.1,29.96,NE,45,2.2,5.4,99,0.00,,,0.00,pywws,2013-01-02 16:03:00,
2013-01-02 16:08:00,52.3,52.1,29.96,WNW,292,2.2,6.0,99,0.00,,,0.00,pywws,2013-01-02 16:08:00,
2013-01-02 16:13:00,52.3,52.1,29.96,NW,315,3.1,6.0,99,0.00,,,0.00,pywws,2013-01-02 16:13:00,
2013-01-02 16:18:00,52.7,52.4,29.96,North,0,6.0,10.7,99,0.00,,,0.00,pywws,2013-01-02 16:18:00,
2013-01-02 16:23:00,52.7,52.4,29.96,NW,315,2.2,6.9,99,0.00,,,0.00,pywws,2013-01-02 16:23:00,
2013-01-02 16:28:00,52.5,52.2,29.95,North,0,2.2,6.9,99,0.00,,,0.00,pywws,2013-01-02 16:28:00,
2013-01-02 16:33:00,52.5,52.2,29.95,NW,315,1.6,3.1,99,0.00,,,0.00,pywws,2013-01-02 16:33:00,
2013-01-02 16:38:00,52.3,52.1,29.95,East,90,3.8,6.9,99,0.00,,,0.00,pywws,2013-01-02 16:38:00,
2013-01-02 16:43:00,52.5,52.2,29.96,NW,315,2.2,3.8,99,0.00,,,0.00,pywws,2013-01-02 16:43:00,
2013-01-02 16:48:00,52.5,52.2,29.96,North,0,2.2,4.5,99,0.00,,,0.00,pywws,2013-01-02 16:48:00,
2013-01-02 16:53:00,52.7,52.4,29.96,West,270,1.6,4.5,99,0.00,,,0.00,pywws,2013-01-02 16:53:00,
2013-01-02 17:03:00,52.7,52.4,29.96,North,0,1.6,5.4,99,0.00,,,0.00,pywws,2013-01-02 17:03:00,
2013-01-02 17:08:00,52.7,52.4,29.96,NE,45,3.1,6.0,99,0.00,,,0.00,pywws,2013-01-02 17:08:00,
2013-01-02 17:13:00,52.7,52.4,29.96,NE,45,2.2,4.5,99,0.00,,,0.00,pywws,2013-01-02 17:13:00,
2013-01-02 17:18:00,52.5,52.2,29.96,West,270,1.6,5.4,99,0.00,,,0.00,pywws,2013-01-02 17:18:00,
2013-01-02 17:23:00,52.5,52.2,29.96,East,90,5.4,9.8,99,0.00,,,0.00,pywws,2013-01-02 17:23:00,
2013-01-02 17:28:00,52.7,52.4,29.96,NE,45,2.2,5.4,99,0.00,,,0.00,pywws,2013-01-02 17:28:00,
2013-01-02 17:33:00,52.7,52.4,29.97,NE,45,2.2,5.4,99,0.00,,,0.00,pywws,2013-01-02 17:33:00,
2013-01-02 17:38:00,52.9,52.6,29.97,West,270,1.6,5.4,99,0.00,,,0.00,pywws,2013-01-02 17:38:00,
2013-01-02 17:43:00,52.9,52.6,29.98,West,270,2.2,6.0,99,0.00,,,0.00,pywws,2013-01-02 17:43:00,
2013-01-02 17:48:00,52.7,52.4,29.98,NW,315,0.7,2.2,99,0.00,,,0.00,pywws,2013-01-02 17:48:00,
2013-01-02 17:53:00,52.5,52.2,29.97,NW,315,1.6,3.1,99,0.00,,,0.00,pywws,2013-01-02 17:53:00,
2013-01-02 18:03:00,52.5,52.2,29.97,NW,315,1.6,3.1,99,0.00,,,0.00,pywws,2013-01-02 18:03:00,
2013-01-02 18:08:00,52.5,52.2,29.97,NE,45,0.7,3.8,99,0.00,,,0.00,pywws,2013-01-02 18:08:00,
2013-01-02 18:13:00,52.5,52.2,29.97,NW,315,1.6,3.1,99,0.00,,,0.00,pywws,2013-01-02 18:13:00,
2013-01-02 18:18:00,52.7,52.4,29.96,NW,315,1.6,3.1,99,0.00,,,0.00,pywws,2013-01-02 18:18:00,
2013-01-02 18:23:00,52.7,52.4,29.97,North,0,2.2,6.9,99,0.00,,,0.00,pywws,2013-01-02 18:23:00,
2013-01-02 18:28:00,52.9,52.6,29.97,West,270,1.6,3.8,99,0.00,,,0.00,pywws,2013-01-02 18:28:00,
2013-01-02 18:33:00,52.9,52.6,29.97,NW,315,1.6,3.8,99,0.00,,,0.00,pywws,2013-01-02 18:33:00,
2013-01-02 18:38:00,53.1,52.8,29.97,South,180,1.6,5.4,99,0.00,,,0.00,pywws,2013-01-02 18:38:00,
2013-01-02 18:44:00,53.1,52.8,29.97,ENE,68,1.6,3.8,99,0.00,,,0.00,pywws,2013-01-02 18:44:00,
2013-01-02 18:49:00,53.1,52.8,29.97,NW,315,2.2,5.4,99,0.00,,,0.00,pywws,2013-01-02 18:49:00,
2013-01-02 19:00:00,53.1,52.8,29.97,East,90,2.2,5.4,99,0.00,,,0.00,pywws,2013-01-02 19:00:00,
2013-01-02 19:05:00,52.9,52.6,29.98,NW,315,1.6,3.8,99,0.00,,,0.00,pywws,2013-01-02 19:05:00,
2013-01-02 19:10:00,53.1,52.8,29.98,North,0,5.4,8.3,99,0.00,,,0.00,pywws,2013-01-02 19:10:00,
2013-01-02 19:16:00,53.1,52.8,29.97,NW,315,5.4,9.2,99,0.00,,,0.00,pywws,2013-01-02 19:16:00,
2013-01-02 19:21:00,53.2,53.0,29.97,SW,225,0.7,3.1,99,0.00,,,0.00,pywws,2013-01-02 19:21:00,
2013-01-02 19:26:00,53.1,52.8,29.97,NE,45,3.8,9.2,99,0.00,,,0.00,pywws,2013-01-02 19:26:00,
2013-01-02 19:32:00,53.2,53.0,29.97,NW,315,1.6,3.1,99,0.00,,,0.00,pywws,2013-01-02 19:32:00,
2013-01-02 19:37:00,53.1,52.8,29.97,North,0,3.1,6.0,99,0.00,,,0.00,pywws,2013-01-02 19:37:00,
2013-01-02 19:42:00,53.1,52.8,29.98,East,90,2.2,6.0,99,0.00,,,0.00,pywws,2013-01-02 19:42:00,
2013-01-02 19:48:00,53.1,52.8,29.98,NW,315,1.6,3.8,99,0.00,,,0.00,pywws,2013-01-02 19:48:00,
2013-01-02 19:53:00,53.1,52.8,29.97,East,90,3.8,6.9,99,0.00,,,0.00,pywws,2013-01-02 19:53:00,
2013-01-02 20:04:00,53.1,52.8,29.97,NE,45,4.5,6.0,99,0.00,,,0.00,pywws,2013-01-02 20:04:00,
2013-01-02 20:09:00,53.1,52.8,29.98,NE,45,5.4,7.6,99,0.00,,,0.00,pywws,2013-01-02 20:09:00,
2013-01-02 20:14:00,53.1,52.8,29.98,NE,45,4.5,6.9,99,0.00,,,0.00,pywws,2013-01-02 20:14:00,
2013-01-02 20:20:00,53.2,53.0,29.98,NNE,22,5.4,9.8,99,0.00,,,0.00,pywws,2013-01-02 20:20:00,
2013-01-02 20:25:00,53.2,53.0,29.98,NE,45,4.5,7.6,99,0.00,,,0.00,pywws,2013-01-02 20:25:00,
2013-01-02 20:30:00,53.2,53.0,29.97,NE,45,4.5,9.8,99,0.00,,,0.00,pywws,2013-01-02 20:30:00,
2013-01-02 20:36:00,53.2,53.0,29.97,NE,45,3.8,6.9,99,0.00,,,0.00,pywws,2013-01-02 20:36:00,
2013-01-02 20:41:00,53.2,53.0,29.98,NNE,22,3.1,9.8,99,0.00,,,0.00,pywws,2013-01-02 20:41:00,
2013-01-02 20:46:00,53.2,53.0,29.98,ENE,68,4.5,8.3,99,0.00,,,0.00,pywws,2013-01-02 20:46:00,
2013-01-02 20:52:00,53.4,53.1,29.98,NE,45,5.4,16.8,99,0.00,,,0.00,pywws,2013-01-02 20:52:00,
2013-01-02 21:02:00,53.4,53.1,29.98,NNE,22,4.5,11.4,99,0.00,,,0.00,pywws,2013-01-02 21:02:00,
2013-01-02 21:08:00,53.6,53.3,29.98,NW,315,4.5,7.6,99,0.00,,,0.00,pywws,2013-01-02 21:08:00,
2013-01-02 21:13:00,53.6,53.3,29.98,South,180,4.5,9.2,99,0.00,,,0.00,pywws,2013-01-02 21:13:00,
2013-01-02 21:18:00,53.6,53.3,29.98,East,90,6.9,11.4,99,0.00,,,0.00,pywws,2013-01-02 21:18:00,
2013-01-02 21:24:00,53.8,53.5,29.99,NE,45,5.4,10.7,99,0.00,,,0.00,pywws,2013-01-02 21:24:00,
2013-01-02 21:29:00,53.8,53.5,29.98,NE,45,3.1,6.0,99,0.00,,,0.00,pywws,2013-01-02 21:29:00,
2013-01-02 21:34:00,53.8,53.2,29.98,NE,45,5.4,9.2,98,0.00,,,0.00,pywws,2013-01-02 21:34:00,
2013-01-02 21:40:00,53.6,53.0,29.99,NE,45,5.4,11.4,98,0.00,,,0.00,pywws,2013-01-02 21:40:00,
2013-01-02 21:45:00,53.8,53.2,29.98,East,90,3.8,6.0,98,0.00,,,0.00,pywws,2013-01-02 21:45:00,
2013-01-02 21:50:00,53.8,53.2,29.99,NE,45,2.2,6.0,98,0.00,,,0.00,pywws,2013-01-02 21:50:00,
2013-01-02 22:01:00,53.8,53.2,29.99,SW,225,3.8,6.0,98,0.00,,,0.00,pywws,2013-01-02 22:01:00,
2013-01-02 22:06:00,54.0,53.1,29.99,ENE,68,5.4,6.9,97,0.00,,,0.00,pywws,2013-01-02 22:06:00,
2013-01-02 22:12:00,54.0,53.1,29.99,NNE,22,6.9,9.8,97,0.00,,,0.00,pywws,2013-01-02 22:12:00,
2013-01-02 22:17:00,54.0,53.1,29.99,ENE,68,6.0,9.8,97,0.00,,,0.00,pywws,2013-01-02 22:17:00,
2013-01-02 22:22:00,53.8,52.9,29.99,SE,135,3.8,9.2,97,0.00,,,0.00,pywws,2013-01-02 22:22:00,
2013-01-02 22:28:00,53.8,52.9,30.00,North,0,5.4,9.8,97,0.00,,,0.00,pywws,2013-01-02 22:28:00,
2013-01-02 22:33:00,53.8,52.9,30.00,NE,45,6.0,13.0,97,0.00,,,0.00,pywws,2013-01-02 22:33:00,
2013-01-02 22:38:00,53.8,52.9,30.00,NE,45,6.0,9.2,97,0.00,,,0.00,pywws,2013-01-02 22:38:00,
2013-01-02 22:44:00,53.8,52.9,30.00,East,90,5.4,8.3,97,0.00,,,0.00,pywws,2013-01-02 22:44:00,
2013-01-02 22:49:00,54.0,53.1,30.01,NE,45,4.5,9.2,97,0.00,,,0.00,pywws,2013-01-02 22:49:00,
2013-01-02 23:00:00,54.0,53.1,30.00,North,0,6.0,9.8,97,0.00,,,0.00,pywws,2013-01-02 23:00:00,
2013-01-02 23:05:00,53.8,52.9,30.01,NE,45,7.6,10.7,97,0.00,,,0.00,pywws,2013-01-02 23:05:00,
2013-01-02 23:10:00,53.8,52.9,30.01,NE,45,7.6,11.4,97,0.00,,,0.00,pywws,2013-01-02 23:10:00,
2013-01-02 23:16:00,53.8,52.9,30.01,East,90,6.9,10.7,97,0.00,,,0.00,pywws,2013-01-02 23:16:00,
2013-01-02 23:21:00,53.8,52.9,30.01,East,90,6.9,13.0,97,0.00,,,0.00,pywws,2013-01-02 23:21:00,
2013-01-02 23:26:00,53.8,52.9,30.01,NE,45,8.3,13.6,97,0.00,,,0.00,pywws,2013-01-02 23:26:00,
2013-01-02 23:32:00,54.0,53.1,30.01,NE,45,5.4,9.2,97,0.00,,,0.00,pywws,2013-01-02 23:32:00,
2013-01-02 23:37:00,53.8,52.9,30.02,ENE,68,5.4,8.3,97,0.00,,,0.00,pywws,2013-01-02 23:37:00,
2013-01-02 23:42:00,53.8,52.9,30.01,NE,45,7.6,16.8,97,0.00,,,0.00,pywws,2013-01-02 23:42:00,
2013-01-02 23:48:00,53.8,52.9,30.01,NW,315,6.9,13.0,97,0.00,,,0.00,pywws,2013-01-02 23:48:00,
2013-01-02 23:53:00,53.8,52.7,30.01,NE,45,8.3,11.4,96,0.00,,,0.00,pywws,2013-01-02 23:53:00,